Location: Dumpton Point
(51.3500°N, 1.4433°E)
Time: 23:39:15
(UTC+00:00)

Cosmos 1606 Rocket - Pass Details

Date: 09 April 2020
Orbit: 602 x 633 km, 82.5° (Epoch: 29 May)

Event Time Altitude Azimuth Distance (km) Brightness Sun altitude
Rises 19:26:53 0° 188° (S) 2,900 6.8 -7.6°
Reaches altitude 10° 19:29:06 10° 188° (S) 2,002 6.0 -7.9°
Maximum altitude 19:33:33 89° 109° (ESE) 639 3.6 -8.5°
Drops below altitude 10° 19:38:04 10° 11° (N) 2,029 6.4 -9.1°
Sets 19:40:19 0° 11° (N) 2,944 7.2 -9.5°
